Location: Peebles
(55.6412°N, 3.1714°W)
Time: 05:53:10
(UTC+01:00)

NOAA 16 DEB - Pass Details

Date: 04 July 2022
Orbit: 836 x 886 km, 98.9° (Epoch: 10 August)

Event Time Altitude Azimuth Distance (km) Brightness Sun altitude
Rises 01:03:49 0° 231° (SW) 3,384 ? -11.4°
Reaches altitude 10° 01:08:54 10° 272° (W) 2,456 ? -11.4°
Maximum altitude 01:09:40 10° 281° (W) 2,437 ? -11.4°
Drops below altitude 10° 01:10:27 10° 289° (WNW) 2,459 ? -11.5°
Sets 01:15:35 0° 331° (NNW) 3,408 ? -11.5°
